Location: Most
(50.5133°N, 13.6207°E)
Time: 10:46:08
(UTC+01:00)

Oscar 11 - Pass Details

Date: 05 December 2021
Orbit: 611 x 625 km, 97.6° (Epoch: 23 January)

Event Time Altitude Azimuth Distance (km) Brightness Sun altitude
Rises 06:11:12 0° 9° (N) 2,921 10.4 -14.8°
Reaches altitude 10° 06:13:28 10° 4° (N) 2,007 9.5 -14.5°
Maximum altitude 06:17:39 48° 290° (WNW) 818 7.2 -13.8°
Drops below altitude 10° 06:21:49 10° 216° (SW) 1,985 9.5 -13.2°
Sets 06:24:02 0° 211° (SSW) 2,883 10.4 -12.9°
